FW1025 Weather Reports


time (UTC)temp
C
wind
direction
speed
KPH
gust
KPH
rain 1hr
cm
rain 24hr
cm
rain mn
cm
humidity
%
barometer
mb
20260906214940 27 139 12.9 29.0 0.00 0.00 0.00 33 1021.6
20260906213942 27 177 12.9 27.4 0.00 0.00 0.00 33 1021.8
20260906212957 27 177 11.3 27.4 0.00 0.00 0.00 33 1021.8
20260906211951 27 132 9.7 29.0 0.00 0.00 0.00 34 1021.8
20260906205821 27 154 16.1 38.6 0.00 0.00 0.00 34 1022.2
20260906204755 27 93 14.5 27.4 0.00 0.00 0.00 38 1022.2
20260906203805 27 156 12.9 27.4 0.00 0.00 0.00 36 1022.5
20260906202751 26 152 11.3 27.4 0.00 0.00 0.00 38 1022.6
20260906201721 26 121 9.7 22.5 0.00 0.00 0.00 38 1022.6
20260906200652 27 126 9.7 24.1 0.00 0.00 0.00 37 1022.6
20260906195658 27 216 11.3 24.1 0.00 0.00 0.00 34 1022.6
20260906194637 26 134 8.0 17.7 0.00 0.00 0.00 34 1022.6
20260906193612 26 158 12.9 24.1 0.00 0.00 0.00 36 1023.0
20260906191518 26 135 8.0 32.2 0.00 0.00 0.00 35 1023.2
20260906190506 26 146 11.3 32.2 0.00 0.00 0.00 36 1023.3
20260906185508 26 124 11.3 22.5 0.00 0.00 0.00 35 1023.7
20260906184440 26 103 11.3 24.1 0.00 0.00 0.00 35 1023.7
20260906182249 26 174 11.3 22.5 0.00 0.00 0.00 36 1024.3
20260906181249 26 142 8.0 22.5 0.00 0.00 0.00 36 1024.6
20260906180217 26 130 8.0 20.9 0.00 0.00 0.00 36 1024.6
20260906175242 26 211 9.7 20.9 0.00 0.00 0.00 36 1024.7
20260906174219 26 165 8.0 20.9 0.00 0.00 0.00 36 1024.7
20260906173224 26 184 11.3 20.9 0.00 0.00 0.00 34 1024.7
20260906172224 26 169 4.8 17.7 0.00 0.00 0.00 36 1024.8
20260906170124 26 180 3.2 20.9 0.00 0.00 0.00 35 1025.1
20260906165141 26 350 4.8 12.9 0.00 0.00 0.00 36 1025.3
20260906164141 26 55 3.2 16.1 0.00 0.00 0.00 36 1025.4
20260906155803 24 74 4.8 16.1 0.00 0.00 0.00 37 1025.4
20260906153644 23 71 3.2 12.9 0.00 0.00 0.00 40 1025.2
20260906151545 22 44 6.4 14.5 0.00 0.00 0.00 42 1025.3
20260906150543 22 5 4.8 11.3 0.00 0.00 0.00 45 1025.2
20260906145511 21 355 6.4 11.3 0.00 0.00 0.00 47 1025.3
20260906144439 20 24 8.0 11.3 0.00 0.00 0.00 47 1025.3
20260906143428 20 355 6.4 11.3 0.00 0.00 0.00 50 1025.1
20260906142401 19 5 6.4 11.3 0.00 0.00 0.00 50 1025.0
20260906141358 18 0 6.4 11.3 0.00 0.00 0.00 54 1025.0
20260906135237 16 19 4.8 8.0 0.00 0.00 0.00 60 1024.9
20260906133018 15 14 3.2 6.4 0.00 0.00 0.00 61 1024.9
20260906131949 15 5 3.2 6.4 0.00 0.00 0.00 62 1024.6
20260906130921 15 9 3.2 9.7 0.00 0.00 0.00 61 1024.5
20260906125917 15 12 4.8 9.7 0.00 0.00 0.00 60 1024.5
20260906124903 15 5 4.8 9.7 0.00 0.00 0.00 59 1024.7
20260906123916 15 33 4.8 11.3 0.00 0.00 0.00 59 1024.4
20260906122916 15 13 4.8 11.3 0.00 0.00 0.00 59 1024.4
20260906121849 15 5 4.8 9.7 0.00 0.00 0.00 58 1024.3
20260906120815 15 355 6.4 9.7 0.00 0.00 0.00 58 1024.3
20260906115809 15 0 6.4 11.3 0.00 0.00 0.00 58 1024.2
20260906113718 15 346 6.4 11.3 0.00 0.00 0.00 58 1024.2
20260906112712 15 0 4.8 9.7 0.00 0.00 0.00 58 1024.1
20260906110516 16 11 4.8 8.0 0.00 0.00 0.00 56 1023.9
20260906105456 16 350 3.2 8.0 0.00 0.00 0.00 54 1024.1
20260906104447 16 9 3.2 6.4 0.00 0.00 0.00 53 1024.1
20260906102322 17 13 1.6 4.8 0.00 0.00 0.00 53 1024.1
20260906100220 16 34 1.6 4.8 0.00 0.00 0.00 55 1024.2
20260906095229 17 28 3.2 6.4 0.00 0.00 0.00 54 1024.4
20260906094207 17 14 3.2 8.0 0.00 0.00 0.00 54 1024.1
20260906093215 16 36 1.6 8.0 0.00 0.00 0.00 56 1024.1
20260906091037 16 355 1.6 4.8 0.00 0.00 0.00 63 1023.9
20260906090043 16 338 1.6 4.8 0.00 0.00 0.00 63 1023.9
20260906085053 16 338 1.6 4.8 0.00 0.00 0.00 62 1023.9
20260906084113 16 344 1.6 4.8 0.00 0.00 0.00 62 1023.9
20260906083048 16 5 1.6 3.2 0.00 0.00 0.00 64 1023.9
20260906082045 17 5 0.0 3.2 0.00 0.00 0.00 63 1023.9
20260906081107 17 5 1.6 3.2 0.00 0.00 0.00 64 1023.9
20260906080058 17 5 0.0 6.4 0.00 0.00 0.00 64 1023.9
20260906073949 17 320 3.2 8.0 0.00 0.00 0.00 65 1024.0
20260906072951 17 315 1.6 4.8 0.00 0.00 0.00 69 1024.0
20260906072000 17 302 0.0 3.2 0.00 0.00 0.00 69 1024.1
20260906070952 17 336 0.0 1.6 0.00 0.00 0.00 70 1024.2
20260906070015 17 336 0.0 0.0 0.00 0.00 0.00 70 1024.2
20260906064941 17 336 0.0 0.0 0.00 0.00 0.00 70 1024.3
20260906063932 17 336 0.0 0.0 0.00 0.00 0.00 70 1024.3
20260906062946 17 336 1.6 4.8 0.00 0.00 0.00 69 1024.3
20260906061923 17 132 1.6 6.4 0.00 0.00 0.00 69 1024.3
20260906060909 17 336 4.8 12.9 0.00 0.00 0.00 67 1024.1
20260906054811 18 186 4.8 12.9 0.00 0.00 0.00 65 1023.7
20260906053743 18 188 4.8 12.9 0.00 0.00 0.00 66 1023.7
20260906052745 18 204 4.8 12.9 0.00 0.00 0.00 66 1023.7
20260906051727 18 155 6.4 12.9 0.00 0.00 0.00 66 1023.7
20260906050750 18 196 4.8 9.7 0.00 0.00 0.00 66 1023.8
20260906044627 18 186 4.8 11.3 0.00 0.00 0.00 66 1024.1
20260906043615 18 169 4.8 9.7 0.00 0.00 0.00 66 1024.2
20260906042543 18 205 3.2 9.7 0.00 0.00 0.00 65 1024.3
20260906041512 18 189 3.2 8.0 0.00 0.00 0.00 64 1024.3
20260906040446 19 206 3.2 8.0 0.00 0.00 0.00 63 1024.4
20260906035448 19 157 3.2 8.0 0.00 0.00 0.00 63 1024.5
20260906034420 19 200 4.8 11.3 0.00 0.00 0.00 62 1024.5
20260906033404 20 202 4.8 16.1 0.00 0.00 0.00 61 1024.4
20260906032403 20 150 6.4 16.1 0.00 0.00 0.00 60 1024.1
20260906031337 20 153 6.4 16.1 0.00 0.00 0.00 61 1023.9
20260906025252 20 141 8.0 17.7 0.00 0.00 0.00 62 1023.9
20260906024314 20 142 9.7 22.5 0.00 0.00 0.00 61 1023.9
20260906023256 21 144 14.5 24.1 0.00 0.00 0.00 60 1023.9
20260906022251 21 138 11.3 24.1 0.00 0.00 0.00 51 1023.5
20260906021240 22 69 4.8 8.0 0.00 0.00 0.00 36 1023.0
20260906020215 22 99 3.2 8.0 0.00 0.00 0.00 36 1023.0
20260906015224 22 104 3.2 8.0 0.00 0.00 0.00 35 1022.7
20260906014201 22 76 3.2 6.4 0.00 0.00 0.00 33 1022.7
20260906013210 23 71 1.6 6.4 0.00 0.00 0.00 32 1022.7
20260906012146 25 46 0.0 1.6 0.00 0.00 0.00 29 1022.8
20260906011203 26 0 1.6 4.8 0.00 0.00 0.00 29 1023.0
20260906005035 25 296 1.6 6.4 0.00 0.00 0.00 30 1023.2
20260906004028 25 307 3.2 6.4 0.00 0.00 0.00 32 1023.2
20260906002956 24 318 6.4 12.9 0.00 0.00 0.00 33 1023.2
20260906002016 25 311 4.8 12.9 0.00 0.00 0.00 31 1023.2
20260906001034 25 309 6.4 11.3 0.00 0.00 0.00 31 1023.2
20260906000018 26 315 3.2 9.7 0.00 0.00 0.00 29 1023.2
20260905235034 27 306 4.8 9.7 0.00 0.00 0.00 29 1023.1
20260905234023 27 25 1.6 6.4 0.00 0.00 0.00 27 1023.0
20260905231929 27 309 1.6 8.0 0.00 0.00 0.00 28 1022.8
20260905225745 26 273 4.8 9.7 0.00 0.00 0.00 27 1023.0
20260905224727 26 5 6.4 11.3 0.00 0.00 0.00 30 1023.0
20260905223657 25 355 3.2 11.3 0.00 0.00 0.00 33 1023.3
20260905222701 25 225 3.2 9.7 0.00 0.00 0.00 31 1023.3
20260905221657 25 206 3.2 8.0 0.00 0.00 0.00 32 1023.3
20260905220658 25 114 3.2 14.5 0.00 0.00 0.00 31 1023.4
20260905215644 25 146 8.0 22.5 0.00 0.00 0.00 31 1023.5